sat.trackr.live / text

‹ back to catalog

STARLINK-31985

NORAD 60036 · 2024-111W

PAYLOAD ACTIVE UNKNOWN

§ Identity

Operator
Country
US
Launch date
2024-06-08
Launch site
AFETR
Launch vehicle
Mass (kg)
RCS (m²)

Purposes: comms

External: N2YO · Heavens-Above · Gunter

§ Orbital elements

Epoch: 2026-09-21T07:58:15.886848Z

Period
93.85 min
Inclination
53.1598°
Eccentricity
0.0001377
Mean motion
15.34388933 rev/d
Perigee alt
461.8 km
Apogee alt
463.7 km
Semi-major
6,840.9 km
B*
-8.3743e-6
RAAN
245.7212°
Arg perigee
86.3818°
Mean anomaly
273.7342°
Rev number
12,894

§ Raw data

STARLINK-319851 60036U 24111W   26264.33212832 -.00000659  00000+0 -83743-5 0  99992 60036  53.1598 245.7212 0001377  86.3818 273.7342 15.34388933128942

JSON: /api/v1/satellites/60036 · /tle

For live sub-satellite position, see the globe view (requires WebGL).

§ Visibility from observer

Set your observer location to see the next 7 days of passes ≥ 10°. The values pass through the URL so the page stays shareable.

No JS? Fill the form by hand. The geolocation button needs JavaScript.